Starlink 31779

operational
NORAD ID: 59744 Int'l Des: 2024-090 Owner: SPXS Country: US Constellation: starlink
LEOCIRCULAR

About Starlink 31779

Description loading...

Live Position

Loading 3D Globe...

Upcoming Passes

Altitude History

Altitude vs Time

uPlot chart will show altitude changes over time

Two-Line Element Set

1 59744U 24090Q 26102.04404693 .00001306 00000-0 56977-4 0 9993
2 59744 42.9988 354.9235 0000949 253.9804 106.0943 15.27571973108543
Epoch: Apr 12, 2026 • Age: 18 hours

Current Status

Altitude 482.5 km
Velocity 7.63 km/s
Sub-Earth Point 18.21°N, 24.4°E
Launch Date May 13, 2024
Age 1.9 years
Type internet

Technical Details

Classification Payload
Mass 730.00 kg
Dry Mass 700.00 kg
Total Mass 730.00 kg
Length 0.30 m
Diameter 4.10 m
Span 29.00 m
Shape Box + pan
Manufacturer SPXS
Bus Type Starlink V2M
Phase Status In Orbit
Owner/State SPXS/US

Large Constellations

Loading constellations...